Location: Clanezzo
(45.7500°N, 9.6000°E)
Time: 00:43:09
(UTC+00:00)

USA 308 - Pass Details

Date: 27 September 2021
Orbit: 566 x 573 km, 54.0° (Epoch: 23 September)

Event Time Altitude Azimuth Distance (km) Brightness Sun altitude
Rises 19:25:44 0° 303° (WNW) 2,773 7.8 -24.1°
Reaches altitude 10° 19:28:00 10° 306° (NW) 1,874 6.6 -24.4°
Enters shadow 19:31:43 63° 337° (NNW) 642 3.2 -25.0°
